Location: Unspecified
(34.4500°N, 0.0000°E)
Time: 14:59:35
(UTC+00:00)

Envisat - Pass Details

Date: 05 March 2021
Orbit: 764 x 766 km, 98.1° (Epoch: 17 April)

Event Time Altitude Azimuth Distance (km) Brightness Sun altitude
Rises 18:18:36 0° 217° (SW) 3,219 6.9 -4.7°
Reaches altitude 10° 18:22:40 10° 249° (WSW) 2,299 7.0 -5.6°
Maximum altitude 18:24:20 12° 269° (W) 2,195 7.2 -5.9°
Drops below altitude 10° 18:26:01 10° 288° (WNW) 2,304 6.8 -6.3°
Sets 18:30:07 0° 321° (NW) 3,237 6.8 -7.1°
